This demonstration page uses our WeatherBlox Daily Observations layout. Learn more.

Left ArrowRight Arrow

34.74481, -87.66753

Hourly Observations for March 21, 2021

Temp ( °F °C ) Dew Point ( °F °C ) Humidity (%) Winds ( mph kmh ) Pressure ( in mb ) Visibility ( mi km ) Precip ( " mm )
12:53 am 00:53 Clear 46 7.8 38 3.3 73 73 Calm 30.30 1026 10 16 0.00 0.00
1:53 am 01:53 Clear 44 6.7 38 3.3 79 79 Calm 30.30 1026 10 16 0.00 0.00
2:53 am 02:53 Clear 42 5.6 35 1.7 76 76 ESE 5 7 30.31 1026 10 16 0.00 0.00
3:53 am 03:53 Clear 41 5 33 0.6 73 73 Calm 30.31 1026 10 16 0.00 0.00
4:53 am 04:53 Clear 41 5 32 0 70 70 ESE 3 6 30.31 1026 10 16 0.00 0.00
5:53 am 05:53 Clear 41 5 32 0 70 70 Calm 30.32 1027 10 16 0.00 0.00
6:53 am 06:53 Sunny 41 5 34 1.1 76 76 Calm 30.33 1027 10 16 0.00 0.00
7:53 am 07:53 Sunny 44 6.7 38 3.3 79 79 Calm 30.34 1028 10 16 0.00 0.00
8:53 am 08:53 Sunny 51 10.6 33 0.6 50 50 SE 3 6 30.35 1028 10 16 0.00 0.00
9:53 am 09:53 Sunny 55 12.8 33 0.6 44 44 ESE 8 13 30.35 1028 10 16 0.00 0.00
10:53 am 10:53 Sunny 58 14.4 35 1.7 42 42 E 9 15 30.35 1028 10 16 0.00 0.00
11:53 am 11:53 Sunny 60 15.6 36 2.2 41 41 ESE 9 15 30.33 1027 10 16 0.00 0.00
12:53 pm 12:53 Sunny 62 16.7 37 2.8 40 40 ESE 7 11 30.31 1027 10 16 0.00 0.00
1:53 pm 13:53 Sunny 63 17.2 39 3.9 41 41 E 9 15 30.28 1026 10 16 0.00 0.00
2:53 pm 14:53 Sunny 65 18.3 41 5 42 42 SE 8 13 30.25 1024 10 16 0.00 0.00
3:53 pm 15:53 Sunny 66 18.9 41 5 40 40 SE 10 17 30.23 1024 10 16 0.00 0.00
4:53 pm 16:53 Sunny 66 18.9 42 5.6 42 42 SE 6 9 30.21 1023 10 16 0.00 0.00
5:53 pm 17:53 Partly Cloudy 64 17.8 42 5.6 45 45 E 8 13 30.21 1023 10 16 0.00 0.00
6:53 pm 18:53 Sunny 60 15.6 43 6.1 53 53 ESE 6 9 30.21 1023 10 16 0.00 0.00
7:53 pm 19:53 Clear 58 14.4 42 5.6 56 56 E 3 6 30.20 1023 10 16 0.00 0.00
8:53 pm 20:53 Clear 53 11.7 44 6.7 72 72 ESE 5 7 30.20 1023 10 16 0.00 0.00
9:53 pm 21:53 Clear 53 11.7 44 6.7 72 72 SE 5 7 30.20 1023 10 16 0.00 0.00
10:53 pm 22:53 Clear 53 11.7 43 6.1 69 69 SE 5 7 30.20 1023 10 16 0.00 0.00
11:53 pm 23:53 Mostly Cloudy 52 11.1 44 6.7 75 75 Calm 30.20 1023 10 16 0.00 0.00

Powered by AerisWeather